Location: El Mouella
(16.4949°N, 9.1594°W)
Time: 17:41:21
(UTC+00:00)

Cosmos 1782 Rocket - Pass Details

Date: 02 June 2020
Orbit: 607 x 632 km, 82.5° (Epoch: 04 July)

Event Time Altitude Azimuth Distance (km) Brightness Sun altitude
Rises 20:24:29 0° 4° (N) 2,914 7.4 -17.5°
Reaches altitude 10° 20:26:48 10° 10° (N) 2,003 6.4 -18.0°
Maximum altitude 20:31:05 48° 85° (E) 821 3.8 -18.9°
Enters shadow 20:31:53 42° 118° (ESE) 890 3.8 -19.0°
